UAE828 OEDF-OMDB

Flight info

Callsign UAE828
Flight time N/A
Altitude 9000
Route ROTEL N572 DAVRI P559 VUTEB
Aircraft B77W/H-SDE1E2E3FGHIJ2J3J4J5M1RWXY/LB1D1

Departure

Time N/A
Airport King Fahd International Airport (OEDF)

Arrival

Time 2026-04-20 13:35
Airport Dubai International Airport (OMDB)
Time Latitude Longitude Altitude Speed Heading
2026-04-20 13:01 26.37791 52.31196 34827 ft 546 kts 111°
2026-04-20 13:02 26.36457 52.35160 34818 ft 546 kts 111°
2026-04-20 13:02 26.34195 52.41726 34818 ft 544 kts 114°
2026-04-20 13:03 26.31195 52.49469 34764 ft 543 kts 115°
2026-04-20 13:03 26.29679 52.53312 34561 ft 542 kts 115°
2026-04-20 13:03 26.28180 52.57157 34316 ft 537 kts 114°
2026-04-20 13:03 26.26718 52.60960 34049 ft 530 kts 114°
2026-04-20 13:04 26.25282 52.64715 33750 ft 524 kts 114°
2026-04-20 13:04 26.23855 52.68438 33432 ft 519 kts 114°
2026-04-20 13:04 26.22443 52.72120 33130 ft 514 kts 114°
2026-04-20 13:04 26.21043 52.75770 32809 ft 511 kts 114°
2026-04-20 13:05 26.19651 52.79399 32499 ft 508 kts 114°
2026-04-20 13:05 26.18267 52.83005 32197 ft 506 kts 114°
2026-04-20 13:05 26.16887 52.86596 31900 ft 504 kts 114°
2026-04-20 13:05 26.15511 52.90175 31606 ft 502 kts 114°
2026-04-20 13:06 26.14136 52.93748 31317 ft 501 kts 114°
2026-04-20 13:06 26.12750 52.97344 30920 ft 514 kts 114°
2026-04-20 13:06 26.11394 53.00858 30842 ft 526 kts 114°
2026-04-20 13:07 26.08519 53.08427 30819 ft 536 kts 113°
2026-04-20 13:07 26.05737 53.16064 30807 ft 535 kts 112°
2026-04-20 13:08 26.02948 53.23723 30806 ft 533 kts 113°
2026-04-20 13:08 26.00148 53.31335 30819 ft 530 kts 113°
2026-04-20 13:09 25.97351 53.38910 30812 ft 528 kts 113°
2026-04-20 13:09 25.95069 53.46644 30816 ft 528 kts 105°
2026-04-20 13:10 25.93253 53.54553 30817 ft 528 kts 104°
2026-04-20 13:10 25.91432 53.62470 30815 ft 529 kts 105°
2026-04-20 13:11 25.89571 53.70339 30813 ft 530 kts 105°
2026-04-20 13:11 25.87675 53.78250 30820 ft 528 kts 105°
2026-04-20 13:12 25.85784 53.86109 30802 ft 525 kts 105°
2026-04-20 13:12 25.83915 53.93876 30422 ft 511 kts 105°
2026-04-20 13:13 25.81761 54.01045 30414 ft 515 kts 111°
2026-04-20 13:13 25.80470 54.04739 30295 ft 514 kts 112°
2026-04-20 13:13 25.79153 54.08438 30009 ft 515 kts 112°
2026-04-20 13:13 25.77836 54.12142 29282 ft 515 kts 112°
2026-04-20 13:14 25.76541 54.15817 28568 ft 509 kts 112°
2026-04-20 13:14 25.75268 54.19467 27888 ft 504 kts 112°
2026-04-20 13:14 25.74016 54.23081 27232 ft 499 kts 112°
2026-04-20 13:14 25.72783 54.26651 26570 ft 494 kts 112°
2026-04-20 13:15 25.71560 54.30195 25932 ft 490 kts 112°
2026-04-20 13:15 25.70344 54.33717 25296 ft 486 kts 112°
2026-04-20 13:15 25.69136 54.37210 24671 ft 484 kts 112°
2026-04-20 13:15 25.67947 54.40641 24032 ft 482 kts 112°
2026-04-20 13:16 25.66747 54.44097 23394 ft 480 kts 112°
2026-04-20 13:16 25.65548 54.47549 22650 ft 478 kts 112°
2026-04-20 13:16 25.64357 54.50973 21996 ft 474 kts 112°
2026-04-20 13:16 25.63174 54.54373 21360 ft 470 kts 112°
2026-04-20 13:17 25.62003 54.57735 20742 ft 466 kts 112°
2026-04-20 13:17 25.60840 54.61071 20133 ft 461 kts 111°
2026-04-20 13:17 25.59687 54.64374 19515 ft 458 kts 111°
2026-04-20 13:17 25.58544 54.67647 18917 ft 454 kts 111°
2026-04-20 13:18 25.57407 54.70902 18296 ft 451 kts 111°
2026-04-20 13:18 25.56275 54.74138 17636 ft 448 kts 111°
2026-04-20 13:18 25.55169 54.77299 17001 ft 443 kts 111°
2026-04-20 13:18 25.54055 54.80479 16396 ft 439 kts 111°
2026-04-20 13:19 25.52956 54.83614 15791 ft 435 kts 110°
2026-04-20 13:19 25.51865 54.86723 15189 ft 431 kts 110°
2026-04-20 13:19 25.50783 54.89806 14614 ft 428 kts 110°
2026-04-20 13:19 25.49705 54.92873 14021 ft 425 kts 110°
2026-04-20 13:20 25.48636 54.95913 13408 ft 423 kts 110°
2026-04-20 13:20 25.47575 54.98928 12874 ft 417 kts 110°
2026-04-20 13:20 25.46584 55.01743 12400 ft 411 kts 110°
2026-04-20 13:20 25.45560 55.04649 11814 ft 408 kts 110°
2026-04-20 13:21 25.44535 55.07556 11315 ft 404 kts 110°
2026-04-20 13:21 25.43529 55.10406 11123 ft 390 kts 110°
2026-04-20 13:21 25.42559 55.13152 10941 ft 378 kts 110°
2026-04-20 13:21 25.41617 55.15817 10768 ft 366 kts 110°
2026-04-20 13:22 25.40708 55.18389 10637 ft 353 kts 110°
2026-04-20 13:22 25.39826 55.20881 10558 ft 340 kts 110°
2026-04-20 13:22 25.38979 55.23275 10463 ft 326 kts 110°
2026-04-20 13:22 25.38178 55.25537 10337 ft 306 kts 110°
2026-04-20 13:23 25.37425 55.27660 10227 ft 288 kts 110°
2026-04-20 13:23 25.36725 55.29634 10073 ft 272 kts 110°
2026-04-20 13:23 25.36041 55.31561 9820 ft 260 kts 110°
2026-04-20 13:23 25.35346 55.33363 9462 ft 257 kts 117°
2026-04-20 13:24 25.34435 55.35058 9135 ft 256 kts 121°
2026-04-20 13:24 25.33478 55.36710 8842 ft 254 kts 121°
2026-04-20 13:24 25.32529 55.38354 8540 ft 253 kts 121°
2026-04-20 13:24 25.31592 55.39996 8218 ft 251 kts 120°
2026-04-20 13:25 25.30670 55.41629 7928 ft 250 kts 120°
2026-04-20 13:25 25.29758 55.43257 7624 ft 248 kts 120°
2026-04-20 13:25 25.28862 55.44860 7322 ft 248 kts 120°
2026-04-20 13:25 25.27949 55.46496 7018 ft 247 kts 119°
2026-04-20 13:26 25.27056 55.48098 6693 ft 248 kts 120°
2026-04-20 13:26 25.26158 55.49711 6439 ft 245 kts 119°
2026-04-20 13:26 25.25265 55.51317 6134 ft 245 kts 120°
2026-04-20 13:26 25.24374 55.52917 5868 ft 242 kts 120°
2026-04-20 13:27 25.23498 55.54490 5637 ft 238 kts 120°
2026-04-20 13:27 25.22628 55.56058 5289 ft 240 kts 120°
2026-04-20 13:27 25.21754 55.57630 4992 ft 238 kts 121°
2026-04-20 13:27 25.20888 55.59184 4680 ft 238 kts 121°
2026-04-20 13:28 25.20025 55.60733 4407 ft 235 kts 121°
2026-04-20 13:28 25.19169 55.62271 4098 ft 235 kts 121°
2026-04-20 13:28 25.18195 55.63693 3761 ft 231 kts 143°
2026-04-20 13:28 25.16758 55.64375 3515 ft 226 kts 176°
2026-04-20 13:29 25.15286 55.64104 3332 ft 224 kts 205°
2026-04-20 13:29 25.13977 55.63194 3242 ft 224 kts 230°
2026-04-20 13:29 25.13271 55.61689 3109 ft 223 kts 261°
2026-04-20 13:29 25.13178 55.59989 3044 ft 222 kts 271°
2026-04-20 13:30 25.13390 55.58348 2873 ft 212 kts 291°
2026-04-20 13:30 25.14003 55.56927 2849 ft 202 kts 297°
2026-04-20 13:30 25.14695 55.55582 2720 ft 198 kts 300°
2026-04-20 13:30 25.15373 55.54344 2620 ft 184 kts 301°
2026-04-20 13:31 25.16007 55.53195 2471 ft 169 kts 301°
2026-04-20 13:31 25.16605 55.52118 2383 ft 162 kts 302°
2026-04-20 13:31 25.17195 55.51051 2251 ft 163 kts 302°
2026-04-20 13:31 25.17784 55.49993 2115 ft 163 kts 302°
2026-04-20 13:32 25.18371 55.48932 1900 ft 157 kts 302°
2026-04-20 13:32 25.18913 55.47954 1734 ft 145 kts 302°
2026-04-20 13:32 25.19434 55.47014 1551 ft 143 kts 302°
2026-04-20 13:32 25.19956 55.46066 1363 ft 146 kts 302°
2026-04-20 13:33 25.20485 55.45115 1176 ft 147 kts 302°
2026-04-20 13:33 25.21012 55.44156 964 ft 144 kts 302°
2026-04-20 13:33 25.21524 55.43237 804 ft 141 kts 301°
2026-04-20 13:33 25.22036 55.42317 660 ft 143 kts 299°
2026-04-20 13:34 25.22536 55.41376 454 ft 141 kts 302°
2026-04-20 13:34 25.23068 55.40440 268 ft 147 kts 301°
2026-04-20 13:34 25.23602 55.39463 63 ft 148 kts 301°
2026-04-20 13:34 25.24104 55.38560 30 ft 124 kts 302°
2026-04-20 13:35 25.24476 55.37891 29 ft 80 kts 301°
2026-04-20 13:35 25.24695 55.37496 27 ft 45 kts 301°
2026-04-20 13:35 25.24782 55.37201 29 ft 34 kts 272°
2026-04-20 13:35 25.24775 55.36973 27 ft 26 kts 238°
2026-04-20 13:36 25.24626 55.36863 29 ft 26 kts 210°
2026-04-20 13:36 25.24518 55.36791 30 ft 15 kts 211°
2026-04-20 13:36 25.24430 55.36732 30 ft 15 kts 214°
2026-04-20 13:36 25.24380 55.36635 26 ft 15 kts 256°
2026-04-20 13:37 25.24375 55.36523 30 ft 15 kts 278°
2026-04-20 13:37 25.24403 55.36437 30 ft 8 kts 296°
2026-04-20 13:37 25.24431 55.36386 29 ft 6 kts 302°
2026-04-20 13:37 25.24432 55.36382 30 ft 0 kts 302°